Home   Weather   St. Paul   Past weeks

Flag for USA Past Weather in St. Paul, Minnesota, USA — Yesterday and Last 2 Weeks

Now
54 °F

Sunny.


Feels Like: 53 °F
Forecast: 47 / 63 °F
Wind: 6 mph from Southeast

Location: St. Paul Downtown Holman Field

Current Time: Apr 24, 2017 at 8:30:24 am

Latest Report: Apr 24, 2017 at 7:53 am


Visibility: 10 mi

Pressure: 29.80 "Hg

Humidity: 57%

Dew Point: 39 °F

Location of St. PaulLocation

Past Weather in St. Paul — Graph

°F

St. Paul Temperature Yesterday

Maximum temperature yesterday: 67 °F (at 3:53 pm)
Minimum temperature yesterday: 45 °F (at 3:53 am)
Average temperature yesterday: 56 °F

High & Low Weather Summary for the Past Weeks

 TemperatureHumidityPressure
High72 °F (Apr 9, 1:53 pm)100% (Apr 14, 11:53 pm)30.34 "Hg (Apr 14, 11:53 pm)
Low32 °F (Apr 11, 2:44 am)24% (Apr 16, 5:53 pm)29.50 "Hg (Apr 9, 3:53 pm)
Average51 °F74%30.03 "Hg
* Reported Apr 9 6:53 am — Apr 24 6:53 am, St. Paul, Weather by CustomWeather, © 2017

Note: Actual official high and low records may vary slightly from our data, if they occured in-between our weather recording intervals... More about our weather records

Advertising

St. Paul Weather History for the Previous 24 Hours

Scroll right to see more
 ConditionsComfort  
Time TempWeatherWind HumidityBarometerVisibility
6:53 am
Mon, Apr 24
51 °FSunny.7 mph66%29.82 "Hg10 mi
5:53 am48 °FClear.6 mph80%29.82 "Hg10 mi
4:53 am47 °FClear.No wind86%29.83 "Hg10 mi
3:53 am46 °FClear.No wind83%29.84 "Hg10 mi
2:53 am49 °FClear.No wind74%29.85 "Hg10 mi
1:53 am49 °FClear.3 mph74%29.86 "Hg10 mi
12:53 am50 °FClear.6 mph71%29.88 "Hg10 mi
11:53 pm
Sun, Apr 23
50 °FClear.3 mph71%29.89 "Hg10 mi
10:53 pm53 °FClear.7 mph64%29.90 "Hg10 mi
9:53 pm57 °FClear.8 mph62%29.90 "Hg10 mi
8:53 pm59 °FClear.9 mph58%29.88 "Hg10 mi
7:53 pm64 °FSunny.8 mph37%29.86 "Hg10 mi
6:53 pm67 °FSunny.7 mph37%29.88 "Hg10 mi
5:53 pm67 °FSunny.6 mph35%29.89 "Hg10 mi
4:53 pm67 °FSunny.No wind39%29.93 "Hg10 mi
3:53 pm67 °FSunny.3 mph39%29.97 "Hg10 mi
2:53 pm66 °FSunny.No wind42%29.99 "Hg10 mi
1:53 pm65 °FSunny.6 mph42%30.01 "Hg10 mi
12:53 pm62 °FSunny.5 mph50%30.04 "Hg10 mi
11:53 am60 °FSunny.No wind53%30.07 "Hg10 mi
10:53 am57 °FSunny.7 mph60%30.09 "Hg10 mi
9:53 am54 °FSunny.8 mph64%30.10 "Hg10 mi
8:53 am52 °FSunny.6 mph69%30.10 "Hg10 mi
Weather by CustomWeather, © 2017

See weather overviewHow to use our weather pages